Other Public Products
Issued by NWS Grand Forks, ND

Home | Current Version | Previous Version | Graphics & Text | Print | Product List | Glossary On
Versions: 1 2 3 4 5 6 7 8 9 10 11 12 13 14 15 16 17 18 19 20 21 22 23 24 25 26 27 28 29 30 31 32 33 34 35 36 37 38 39 40 41 42 43 44 45 46 47 48 49 50
000
FPUS83 KFGF 281210
OPUFGF
PRAIRIE TO PINES WEATHER ROUNDUP
NATIONAL WEATHER SERVICE EASTERN NORTH DAKOTA/GRAND FORKS ND
700 AM CDT TUE JUL 28 2015

 **SATELLITE DATA USED TO AUGMENT SKY COVER AT AUTOMATED STATIONS**
 *****  WEATHER ACROSS EASTERN NORTH DAKOTA  *****

CITY           SKY/WX    TMP DP  RH WIND       PRES   REMARKS
GRAND FORKS    CLOUDY    72  69  90 S16       29.59R
6HR MIN TEMP:  72; 6HR MAX TEMP:  75; 6HR PCP:  0.01;

GRAND FORKS AF CLOUDY    72  69  88 SW14      29.63R
GRAND CITY NWS   N/A     70 N/A N/A S18         N/A
BUXTON         NOT AVBL
DEVILS LAKE    CLOUDY    72  61  68 S12       29.58R
6HR MIN TEMP:  70; 6HR MAX TEMP:  77;

FARGO          CLOUDY    71  68  90 S10       29.67R
6HR MIN TEMP:  71; 6HR MAX TEMP:  78; 6HR PCP:  0.65;

WAHPETON ARPT  CLOUDY    68  64  88 W13       29.69R
$$

 *****  WEATHER ACROSS CENTRAL AND WESTERN NORTH DAKOTA  *****

CITY           SKY/WX    TMP DP  RH WIND       PRES   REMARKS
JAMESTOWN      CLOUDY    69  63  81 S10       29.65R
6HR MIN TEMP:  67; 6HR MAX TEMP:  77; 6HR PCP:  0.22;

BISMARCK       CLOUDY    63  54  72 W22G31    29.71R
6HR MIN TEMP:  62; 6HR MAX TEMP:  72;

MINOT          CLOUDY    63  54  72 SW15G26   29.58S
6HR MIN TEMP:  64; 6HR MAX TEMP:  73; 6HR PCP:  0.01;

MINOT AFB      CLOUDY    64  59  85 SW13G22   29.57R
6HR MIN TEMP:  64; 6HR MAX TEMP:  76; 6HR PCP: TRACE;

GARRISON         N/A     62  55  77 W17G26    29.64R
6HR MIN TEMP:  61; 6HR MAX TEMP:  70;

WILLISTON      CLOUDY    60  54  80 SW23G37   29.58R
6HR MIN TEMP:  59; 6HR MAX TEMP:  64;

DICKINSON      MOCLDY    57  49  74 W28G38    29.71S
6HR MIN TEMP:  56; 6HR MAX TEMP:  61; 6HR PCP: TRACE;

HETTINGER      CLEAR     54  47  77 W20       29.82S
6HR MIN TEMP:  54; 6HR MAX TEMP:  59;

$$

 *****  OTHER OBSERVATIONS NORTHEAST NORTH DAKOTA  *****

CITY           SKY/WX    TMP DP  RH WIND       PRES   REMARKS
WALHALLA       FAIR      73  73 100 MISG      29.53F
LANGDON        PTSUNNY   73  72  94 S12       29.58F
CAVALIER       PTSUNNY   75  72  88 S16G24    29.55F
GRAFTON        CLOUDY    75  73  94 S17G26    29.60R
CANDO          NOT AVBL
FORT TOTTEN      N/A     69  63  82 S7        29.95S
ROLLA          FAIR      64  63  94 SW17G26   29.58R
RUGBY          NOT AVBL
 ***** THE ABOVE OBSERVATIONS ARE NON NWS ARE NOT QUALITY
        CONTROLLED AND MAY MIS-REPORT RAIN FOR SNOW...
$$

 *****  OTHER OBSERVATIONS SOUTHEAST NORTH DAKOTA *****

CITY           SKY/WX    TMP DP  RH WIND       PRES   REMARKS
COOPERSTOWN    NOT AVBL
VALLEY CITY    FAIR      66  66 100 S8        29.68R
OAKES            N/A     64  64 100 SE5       29.68S
GWINNER          N/A     68  68 100 SW6       29.70F
SHEYENNE NWR     N/A     68  67  98 SW6       29.95S
BUFFALO        NOT AVBL
WYNDMERE         N/A     70  70 100 SW6         N/A
 ***** THE ABOVE OBSERVATIONS ARE NON NWS ARE NOT QUALITY
       CONTROLLED AND MAY MIS-REPORT RAIN FOR SNOW...
$$

  *****  WEATHER ACROSS NORTHERN MINNESOTA  *****

CITY           SKY/WX    TMP DP  RH WIND       PRES   REMARKS
FLAG ISLAND    CLOUDY    73  70  88 SE14G23   29.67F
WARROAD        CLOUDY    73  70  88 SE8       29.66F
ROSEAU         CLOUDY    75  70  83 SE10G17   29.64F
HALLOCK        CLOUDY    75  72  88 S16G25    29.57S
THF RVR FALLS  CLOUDY    72  70  94 S15       29.65S
6HR MIN TEMP:  72; 6HR MAX TEMP:  73; 6HR PCP:  0.07;

HALSTAD        NOT AVBL
FOSSTON        LGT RAIN  70  66  88 S6        29.68F
BAUDETTE       CLOUDY    72  68  87 SE9       29.69S
6HR MIN TEMP:  70; 6HR MAX TEMP:  74;

WASKISH        CLOUDY    73  70  88 SE6       29.71R
CROOKSTON      RAIN      70  68  94 S22       29.60F
$$
  *****  WEATHER ACROSS CENTRAL AND WEST MINNESOTA  *****

CITY           SKY/WX    TMP DP  RH WIND       PRES   REMARKS
BEMIDJI        LGT RAIN  70  68  94 S8        29.68F
PARK RAPIDS    LGT RAIN  71  68  90 SE10      29.70F
6HR MIN TEMP:  71; 6HR MAX TEMP:  76; 6HR PCP:  0.26;

WADENA         CLOUDY    68  66  94 E8        29.66S
DETROIT LAKES  LGT RAIN  70  68  94 SE10      29.66F
MOORHEAD       CLOUDY    70  68  94 S6        29.68R
FERGUS FALLS   CLOUDY    70  70 100 SE5       29.64R
ELBOW LAKE     FAIR      67  66  94 SE6       29.64F
MORRIS MN      CLOUDY    70  70 100 S8        29.66R
STAPLES        LGT RAIN  70  68  94 SE10G17   29.68F
WHEATON        CLOUDY    66  64  94 CALM      29.69R
$$
  *****  WEATHER ELSEWHERE ACROSS MINNESOTA  *****

CITY           SKY/WX    TMP DP  RH WIND       PRES   REMARKS
DULUTH         CLOUDY    70  65  84 SE10      29.86R
6HR MIN TEMP:  68; 6HR MAX TEMP:  74;

INTRNTL FALLS  CLOUDY    70  67  90 SE7       29.76F
6HR MIN TEMP:  67; 6HR MAX TEMP:  73;

ELY            CLOUDY    70  63  78 SE8       29.86R
CLOQUET        CLOUDY    70  66  88 SE5       29.85R
BRAINERD       RAIN      71  70  96 SE10G28   29.68F FOG
6HR MIN TEMP:  71; 6HR MAX TEMP:  74; 6HR PCP:  0.12;

HIBBING        CLOUDY    71  68  90 SE8       29.81F
6HR MIN TEMP:  66; 6HR MAX TEMP:  71;

ALEXANDRIA     CLOUDY    69  68  96 SE8       29.67S
6HR MIN TEMP:  66; 6HR MAX TEMP:  74; 6HR PCP:  0.94;

SAINT CLOUD    CLOUDY    71  70  96 SE10      29.76F
6HR MIN TEMP:  71; 6HR MAX TEMP:  74; 6HR PCP:  1.08;

MINNEAPOLIS    TSTM      72  70  93 SW13G24   29.91R FOG
6HR MIN TEMP:  72; 6HR MAX TEMP:  76; 6HR PCP:  0.45;

$$

  *****  WEATHER ACROSS SOUTH DAKOTA  *****

CITY           SKY/WX    TMP DP  RH WIND       PRES   REMARKS
SIOUX FALLS    CLOUDY    69  67  93 S7        29.81R
6HR MIN TEMP:  69; 6HR MAX TEMP:  75; 6HR PCP:  0.50;

BROOKINGS      CLOUDY    68  63  83 SW12      29.78R
WATERTOWN      CLOUDY    68  65  90 S9        29.74R
6HR MIN TEMP:  67; 6HR MAX TEMP:  76; 6HR PCP:  0.83;

HURON          CLOUDY    69  67  93 W3        29.75R
6HR MIN TEMP:  67; 6HR MAX TEMP:  79; 6HR PCP:  0.69;

SISSETON         N/A     69  67  93 NW5       29.69R
ABERDEEN       CLOUDY    68  65  90 SW13      29.71R
6HR MIN TEMP:  68; 6HR MAX TEMP:  78; 6HR PCP:  0.56;

MITCHELL       CLOUDY    70  68  93 S7        29.77R
PIERRE         PTCLDY    61  57  87 W15       29.81R
6HR MIN TEMP:  61; 6HR MAX TEMP:  68; 6HR PCP: TRACE;

MOBRIDGE       MOCLDY    62  58  86 W15       29.77R
RAPID CITY     CLEAR     56  45  66 W15       29.97R
6HR MIN TEMP:  52; 6HR MAX TEMP:  63;

$$

  *****  SOME WEATHER IN NEARBY STATES *****

CITY           SKY/WX    TMP DP  RH WIND       PRES   REMARKS
GLASGOW MT     RAIN      57  55  93 W23G32    29.61S FOG
6HR MIN TEMP:  55; 6HR MAX TEMP:  58; 6HR PCP:  0.22;

GREAT FALLS MT CLOUDY    51  44  77 SW13      30.04S
6HR MIN TEMP:  50; 6HR MAX TEMP:  52; 6HR PCP:  0.04;

CHEYENNE WY    CLEAR     56  29  35 NW18G31   30.15R
6HR MIN TEMP:  56; 6HR MAX TEMP:  66; 6HR PCP: TRACE;

SCOTTSBLUFF NE CLEAR     54  48  80 MISG      30.06R
6HR MIN TEMP:  53; 6HR MAX TEMP:  68;

OMAHA NE       MOCLDY    78  73  84 S5        29.82R
6HR MIN TEMP:  76; 6HR MAX TEMP:  79;

DES MOINES IA  PTCLDY    75  69  81 SE9       29.86R
6HR MIN TEMP:  73; 6HR MAX TEMP:  75;

DAVENPORT IA   SUNNY     73  69  87 SE7       29.96S
6HR MIN TEMP:  70; 6HR MAX TEMP:  74;

CHICAGO IL     MOSUNNY   73  66  78 SE5       30.00R
6HR MIN TEMP:  67; 6HR MAX TEMP:  74;

EAU CLAIRE WI  CLOUDY    72  65  78 SE12      29.88F
6HR MIN TEMP:  71; 6HR MAX TEMP:  73;

LA CROSSE WI   PTSUNNY   75  64  68 S12       29.93R
6HR MIN TEMP:  72; 6HR MAX TEMP:  75;

$$

  *****  SOME NATIONAL WEATHER *****

CITY           SKY/WX    TMP DP  RH WIND       PRES   REMARKS
LA GUARDIA NY  MOSUNNY   79  69  71 CALM      30.00S


USA.gov is the U.S. government's official web portal to all federal, state and local government web resources and services.